Portland Hillsboro, OR

2:58 AM PDT on August 17, 2017 (GMT -0700)
Portland-Hillsboro

Weather History for KHIO - March, 2013

Change the Weather History Date:

Monday, March 4, 2013

  Actual Average Record
Temperature  
Mean Temperature 42 °F 44 °F  
Max Temperature 57 °F 54 °F 70 °F (1986)
Min Temperature 26 °F 35 °F 25 °F (2015)
Degree Days  
Heating Degree Days 23 21  
Month to date heating degree days 77 84  
Since 1 July heating degree days 3454 3611  
Cooling Degree Days 0 0  
Month to date cooling degree days 0 0  
Year to date cooling degree days 0 0  
Moisture  
Dew Point 29 °F    
Average Humidity 66    
Maximum Humidity 100    
Minimum Humidity 32    
Precipitation  
Precipitation 0.00 in 0.11 in 1.28 in (1987)
Month to date precipitation 0.03 0.45  
Year to date precipitation 3.37 10.92  
Snow  
Snow 0.00 in - - ()
Month to date snowfall 0.0  
Since 1 July snowfall 0.0  
Snow Depth 0.00 in    
Sea Level Pressure  
Sea Level Pressure 30.08 in    
Wind  
Wind Speed 4 mph (East)    
Max Wind Speed 14 mph    
Max Gust Speed 18 mph    
Visibility 10 miles    
Events      
T = Trace of Precipitation, MM = Missing Value Source: NWS Daily Summary

Daily Weather History Graph

Daily Weather History Graph

Search for Another Location

Airport or City:

Trip Planner

Search our weather history database for the weather conditions in past years. The results will help you decide how hot, cold, wet, or windy it might be!

Date:

Astronomy

Mar. 04, 2013 Rise Set
Actual Time 6:44 AM PST 6:03 PM PST
Civil Twilight 6:14 AM PST 6:33 PM PST
Nautical Twilight 5:40 AM PST 7:07 PM PST
Astronomical Twilight 5:05 AM PST 7:41 PM PST
Moon 1:12 AM PST (3/4) 10:37 AM PST (3/4)
Length of Visible Light 12h 18m
Length of Day
11h 19m
Waning Gibbous, 51% of the Moon is Illuminated
Mar 4
Waning Gibbous
Mar 4
Last Quarter
Mar 11
New
Mar 19
First Quarter
Mar 27
Full

Hourly Weather History & Observations

Time (PST) Temp. Windchill Dew Point Humidity Pressure Visibility Wind Dir Wind Speed Gust Speed Precip Events Conditions
12:53 AM 30.0 °F - 28.9 °F 96% 30.26 in 10.0 mi Calm Calm - N/A   Clear
1:53 AM 30.0 °F 25.2 °F 28.9 °F 96% 30.25 in 10.0 mi NW 4.6 mph - N/A   Clear
2:53 AM 28.9 °F 25.2 °F 28.0 °F 96% 30.22 in 10.0 mi SSE 3.5 mph - N/A   Clear
3:53 AM 28.9 °F 25.2 °F 28.0 °F 96% 30.22 in 10.0 mi West 3.5 mph - N/A   Clear
4:53 AM 27.0 °F - 26.1 °F 96% 30.21 in 10.0 mi Calm Calm - N/A   Clear
5:53 AM 28.0 °F - 26.1 °F 92% 30.19 in 9.0 mi Calm Calm - N/A   Clear
6:53 AM 28.0 °F - 26.1 °F 92% 30.17 in 8.0 mi Calm Calm - N/A   Clear
7:53 AM 30.9 °F - 30.0 °F 96% 30.17 in 10.0 mi Calm Calm - N/A   Clear
8:53 AM 35.1 °F 32.2 °F 33.1 °F 92% 30.15 in 10.0 mi West 3.5 mph - N/A   Clear
9:53 AM 45.0 °F 40.1 °F 30.0 °F 56% 30.13 in 10.0 mi ENE 9.2 mph - N/A   Clear
10:53 AM 48.9 °F - 28.0 °F 44% 30.10 in 10.0 mi ENE 6.9 mph - N/A   Clear
11:53 AM 51.1 °F - 27.0 °F 39% 30.09 in 10.0 mi ESE 6.9 mph - N/A   Clear
12:53 PM 54.0 °F - 28.0 °F 37% 30.06 in 10.0 mi East 10.4 mph - N/A   Clear
1:53 PM 55.0 °F - 28.0 °F 35% 30.03 in 10.0 mi ENE 11.5 mph - N/A   Clear
2:53 PM 55.9 °F - 27.0 °F 33% 30.00 in 10.0 mi Variable 5.8 mph - N/A   Clear
3:53 PM 57.0 °F - 28.0 °F 33% 29.99 in 10.0 mi SE 8.1 mph - N/A   Clear
4:53 PM 55.0 °F - 28.9 °F 37% 29.97 in 10.0 mi East 9.2 mph - N/A   Clear
5:53 PM 48.9 °F - 30.0 °F 48% 29.96 in 10.0 mi East 5.8 mph - N/A   Clear
6:53 PM 46.0 °F 42.5 °F 27.0 °F 47% 29.96 in 10.0 mi SE 6.9 mph - N/A   Clear
7:53 PM 43.0 °F - 28.9 °F 58% 29.94 in 10.0 mi Calm Calm - N/A   Clear
8:53 PM 39.0 °F 36.8 °F 30.0 °F 70% 29.94 in 10.0 mi WNW 3.5 mph - N/A   Clear
9:53 PM 36.0 °F 33.3 °F 30.0 °F 79% 29.94 in 10.0 mi NW 3.5 mph - N/A   Clear
11:53 PM 34.0 °F 31.0 °F 30.9 °F 89% 29.92 in 10.0 mi WNW 3.5 mph - N/A   Mostly Cloudy